• En España
  • Lista de países
  • Para 7 días
  • Temperatura del agua
  • Mapa Satelital
  • El tiempo en el mapa
  • Informadores
  • user-avatar
    Iniciar sesión

    Tiempo cada hora Yugovskoe

    Hoy, 14 Agosto, Martes

    Tiempo Temperatura Precipitaciones Viento Presión Humedad
    00:00 +18°C° 0,1 mm 2 mps 738 mmHg 93%
    01:00 +17°C° 0,1 mm 2 mps 738 mmHg 95%
    02:00 +17°C° 0,1 mm 2 mps 738 mmHg 96%
    03:00 +17°C° 0,1 mm 2 mps 738 mmHg 96%
    04:00 +18°C° 0 mm 1 mps 738 mmHg 97%
    05:00 +18°C° 0,3 mm 1 mps 738 mmHg 95%
    06:00 +19°C° 0,3 mm 1 mps 738 mmHg 93%
    07:00 +20°C° 0,3 mm 1 mps 739 mmHg 92%
    08:00 +21°C° 0,4 mm 1 mps 739 mmHg 85%
    09:00 +21°C° 0,4 mm 2 mps 739 mmHg 78%
    10:00 +23°C° 0 mm 2 mps 739 mmHg 74%
    11:00 +22°C° 0,6 mm 3 mps 739 mmHg 72%
    12:00 +22°C° 0,6 mm 3 mps 739 mmHg 69%
    13:00 +22°C° 0,6 mm 3 mps 739 mmHg 67%
    14:00 +22°C° 0,2 mm 3 mps 739 mmHg 68%
    15:00 +21°C° 0,2 mm 3 mps 739 mmHg 69%
    16:00 +20°C° 0 mm 3 mps 740 mmHg 69%
    17:00 +19°C° 0,1 mm 2 mps 740 mmHg 75%
    18:00 +17°C° 0,1 mm 2 mps 740 mmHg 80%
    19:00 +16°C° 0,1 mm 2 mps 740 mmHg 86%
    20:00 +16°C° 0 mm 2 mps 740 mmHg 87%
    21:00 +15°C° 0 mm 2 mps 740 mmHg 89%
    22:00 +14°C° 0 mm 2 mps 740 mmHg 90%
    23:00 +14°C° 0 mm 2 mps 740 mmHg 91%

    Mañana, 15 Agosto, Miércoles

    Tiempo Temperatura Precipitaciones Viento Presión Humedad
    00:00 +13°C° 0 mm 2 mps 741 mmHg 93%
    01:00 +13°C° 0 mm 2 mps 741 mmHg 94%
    02:00 +12°C° 0 mm 2 mps 741 mmHg 95%
    03:00 +12°C° 0 mm 2 mps 741 mmHg 95%
    04:00 +12°C° 0 mm 2 mps 741 mmHg 96%
    05:00 +12°C° 0 mm 2 mps 742 mmHg 93%
    06:00 +13°C° 0 mm 2 mps 742 mmHg 90%
    07:00 +13°C° 0 mm 3 mps 742 mmHg 88%
    08:00 +16°C° 0 mm 3 mps 742 mmHg 80%
    09:00 +17°C° 0 mm 3 mps 742 mmHg 72%
    10:00 +19°C° 0 mm 3 mps 742 mmHg 64%
    11:00 +20°C° 0 mm 4 mps 742 mmHg 61%
    12:00 +21°C° 0 mm 4 mps 743 mmHg 57%
    13:00 +21°C° 0 mm 4 mps 743 mmHg 54%
    14:00 +21°C° 0 mm 4 mps 743 mmHg 54%
    15:00 +22°C° 0 mm 4 mps 743 mmHg 55%
    16:00 +22°C° 0 mm 4 mps 743 mmHg 55%
    17:00 +21°C° 0 mm 3 mps 743 mmHg 61%
    18:00 +19°C° 0 mm 3 mps 743 mmHg 68%
    19:00 +18°C° 0 mm 2 mps 743 mmHg 74%
    20:00 +17°C° 0 mm 2 mps 744 mmHg 77%
    21:00 +15°C° 0 mm 2 mps 744 mmHg 81%
    22:00 +14°C° 0 mm 2 mps 744 mmHg 84%
    23:00 +14°C° 0 mm 2 mps 744 mmHg 86%

    Pasado mañana, 16 Agosto, Jueves

    Tiempo Temperatura Precipitaciones Viento Presión Humedad
    00:00 +13°C° 0 mm 2 mps 744 mmHg 88%
    01:00 +13°C° 0 mm 2 mps 744 mmHg 91%
    02:00 +13°C° 0 mm 2 mps 744 mmHg 91%
    03:00 +12°C° 0 mm 2 mps 744 mmHg 92%
    04:00 +12°C° 0 mm 2 mps 744 mmHg 93%
    05:00 +13°C° 0 mm 2 mps 743 mmHg 88%
    06:00 +13°C° 0 mm 3 mps 743 mmHg 84%
    07:00 +14°C° 0 mm 4 mps 743 mmHg 79%
    08:00 +15°C° 0,1 mm 5 mps 742 mmHg 78%
    09:00 +16°C° 0,1 mm 5 mps 742 mmHg 76%
    10:00 +17°C° 0,1 mm 6 mps 741 mmHg 74%
    11:00 +17°C° 0,5 mm 6 mps 741 mmHg 80%
    12:00 +16°C° 0,5 mm 6 mps 740 mmHg 86%
    13:00 +16°C° 0,5 mm 6 mps 740 mmHg 92%
    14:00 +16°C° 0,3 mm 5 mps 740 mmHg 92%
    15:00 +17°C° 0,3 mm 5 mps 740 mmHg 92%
    16:00 +17°C° 0,3 mm 5 mps 740 mmHg 92%
    17:00 +18°C° 0,2 mm 4 mps 740 mmHg 93%
    18:00 +18°C° 0,2 mm 4 mps 740 mmHg 93%
    19:00 +19°C° 0,2 mm 3 mps 740 mmHg 94%
    20:00 +18°C° 0,1 mm 3 mps 740 mmHg 95%
    21:00 +17°C° 0,1 mm 3 mps 741 mmHg 96%
    22:00 +16°C° 0,1 mm 3 mps 741 mmHg 97%
    23:00 +15°C° 0 mm 2 mps 741 mmHg 97%

    17 Agosto, Viernes

    Tiempo Temperatura Precipitaciones Viento Presión Humedad
    00:00 +13°C° 0 mm 2 mps 741 mmHg 98%
    01:00 +12°C° 0 mm 2 mps 741 mmHg 98%
    02:00 +12°C° 0 mm 2 mps 741 mmHg 98%
    03:00 +10°C° 0 mm 2 mps 742 mmHg 98%
    04:00 +10°C° 0 mm 2 mps 742 mmHg 98%
    05:00 +10°C° 0 mm 2 mps 742 mmHg 97%
    06:00 +12°C° 0 mm 2 mps 743 mmHg 96%
    07:00 +13°C° 0 mm 2 mps 743 mmHg 95%
    08:00 +14°C° 0 mm 2 mps 743 mmHg 88%
    09:00 +16°C° 0 mm 3 mps 743 mmHg 82%
    10:00 +17°C° 0 mm 3 mps 744 mmHg 75%
    11:00 +18°C° 0 mm 3 mps 744 mmHg 69%
    12:00 +20°C° 0 mm 3 mps 744 mmHg 62%
    13:00 +21°C° 0 mm 3 mps 744 mmHg 56%
    14:00 +21°C° 0 mm 3 mps 744 mmHg 55%
    15:00 +21°C° 0 mm 3 mps 744 mmHg 55%
    16:00 +21°C° 0 mm 3 mps 744 mmHg 54%
    17:00 +19°C° 0,2 mm 2 mps 744 mmHg 63%
    18:00 +18°C° 0,2 mm 2 mps 744 mmHg 71%
    19:00 +16°C° 0,2 mm 2 mps 744 mmHg 80%
    20:00 +15°C° 0 mm 2 mps 744 mmHg 81%
    21:00 +14°C° 0 mm 2 mps 745 mmHg 82%
    22:00 +13°C° 0 mm 2 mps 745 mmHg 83%
    23:00 +12°C° 0 mm 2 mps 745 mmHg 85%

    18 Agosto, Sábado

    Tiempo Temperatura Precipitaciones Viento Presión Humedad
    00:00 +10°C° 0 mm 2 mps 745 mmHg 86%
    01:00 +10°C° 0 mm 2 mps 745 mmHg 87%
    02:00 +9°C° 0 mm 2 mps 746 mmHg 88%
    03:00 +8°C° 0 mm 2 mps 746 mmHg 88%
    04:00 +8°C° 0 mm 2 mps 746 mmHg 89%
    05:00 +9°C° 0 mm 3 mps 746 mmHg 86%
    06:00 +9°C° 0 mm 3 mps 747 mmHg 83%
    07:00 +10°C° 0 mm 3 mps 747 mmHg 81%
    08:00 +12°C° 0 mm 4 mps 747 mmHg 74%
    09:00 +13°C° 0 mm 4 mps 747 mmHg 67%
    10:00 +15°C° 0 mm 5 mps 747 mmHg 60%
    11:00 +15°C° 0 mm 5 mps 747 mmHg 58%
    12:00 +16°C° 0 mm 5 mps 747 mmHg 56%
    13:00 +17°C° 0 mm 4 mps 747 mmHg 53%
    14:00 +16°C° 0 mm 5 mps 747 mmHg 54%
    15:00 +16°C° 0 mm 5 mps 747 mmHg 54%
    16:00 +16°C° 0 mm 5 mps 747 mmHg 54%
    17:00 +15°C° 0 mm 4 mps 747 mmHg 59%
    18:00 +14°C° 0 mm 3 mps 747 mmHg 65%
    19:00 +13°C° 0 mm 3 mps 748 mmHg 70%
    20:00 +12°C° 0 mm 3 mps 748 mmHg 74%
    21:00 +10°C° 0 mm 2 mps 748 mmHg 77%
    22:00 +9°C° 0 mm 2 mps 748 mmHg 81%
    23:00 +8°C° 0 mm 2 mps 748 mmHg 84%

    19 Agosto, Domingo

    Tiempo Temperatura Precipitaciones Viento Presión Humedad
    00:00 +8°C° 0 mm 2 mps 749 mmHg 86%
    01:00 +7°C° 0 mm 2 mps 749 mmHg 89%
    02:00 +7°C° 0 mm 2 mps 749 mmHg 90%
    03:00 +7°C° 0 mm 2 mps 749 mmHg 92%
    04:00 +6°C° 0 mm 2 mps 749 mmHg 93%
    05:00 +7°C° 0 mm 2 mps 750 mmHg 89%
    06:00 +8°C° 0 mm 2 mps 750 mmHg 85%
    07:00 +9°C° 0 mm 2 mps 750 mmHg 81%
    08:00 +12°C° 0 mm 2 mps 750 mmHg 73%
    09:00 +14°C° 0 mm 2 mps 750 mmHg 65%
    10:00 +16°C° 0 mm 2 mps 750 mmHg 58%
    11:00 +17°C° 0 mm 2 mps 749 mmHg 54%
    12:00 +18°C° 0 mm 2 mps 749 mmHg 51%
    13:00 +19°C° 0 mm 2 mps 749 mmHg 47%
    14:00 +19°C° 0 mm 2 mps 748 mmHg 47%
    15:00 +19°C° 0 mm 2 mps 748 mmHg 48%
    16:00 +20°C° 0 mm 2 mps 748 mmHg 48%
    17:00 +18°C° 0 mm 2 mps 748 mmHg 55%
    18:00 +18°C° 0 mm 1 mps 748 mmHg 62%
    19:00 +15°C° 0 mm 1 mps 748 mmHg 69%
    20:00 +14°C° 0 mm 1 mps 748 mmHg 71%
    21:00 +13°C° 0 mm 1 mps 748 mmHg 74%
    22:00 +11°C° 0 mm 1 mps 748 mmHg 77%
    23:00 +10°C° 0 mm 0 mps 748 mmHg 79%
    Mostrar más